Regional Weather Roundup
Issued by NWS Little Rock, AR

Home | Current Version | Previous Version | Text Only | Print | Product List | Glossary On
Versions: 1 2 3 4 5 6 7 8 9 10 11 12 13 14 15 16 17 18 19 20 21 22 23 24 25 26 27 28 29 30 31 32 33 34
000
ASUS44 KLZK 241110
RWRLZK
ARKANSAS STATE WEATHER ROUNDUP
NATIONAL WEATHER SERVICE LITTLE ROCK AR
ISSUED BY NATIONAL WEATHER SERVICE MEMPHIS TN
500 AM CST FRI FEB 24 2017

NOTE: "FAIR" INDICATES FEW OR NO CLOUDS BELOW 12,000 FEET WITH NO
SIGNIFICANT WEATHER AND/OR OBSTRUCTIONS TO VISIBILITY.

ARZ001-003-010-029-241200-
NORTHWEST ARKANSAS

CITY           SKY/WX    TMP DP  RH WIND       PRES   REMARKS
FORT SMITH     PTCLDY    58  45  62 W18       29.57R
HARRISON       CLEAR     63  53  70 S9        29.52R
BENTONVILLE    CLEAR     48  43  81 NW8       29.60R
ROGERS         PTCLDY    49  44  83 NW14G20   29.59R
SILOAM SPGS    MOCLDY    46  39  76 NW15      29.60R
HIGHFILL       CLEAR     48  43  82 NW10      29.59R
$$

ARZ004-005-016-241200-
NORTH CENTRAL ARKANSAS

CITY           SKY/WX    TMP DP  RH WIND       PRES   REMARKS
BATESVILLE     CLEAR     63  52  67 S6G21     29.57S
FLIPPIN        PTCLDY    64  50  59 S7        29.49S
MTN HOME       PTCLDY    61  53  75 SW10      29.51R
$$

ARZ040-041-241200-
WEST CENTRAL ARKANSAS

CITY           SKY/WX    TMP DP  RH WIND       PRES   REMARKS
MOUNT IDA      CLEAR     62  52  69 CALM      29.57S
$$

ARZ017-025-026-028-241200-
NORTHEAST ARKANSAS

CITY           SKY/WX    TMP DP  RH WIND       PRES   REMARKS
JONESBORO      CLEAR     62  54  74 S17G24    29.58S
NEWPORT        CLEAR     61  54  77 S25G31    29.57R
WALNUT RIDGE   CLEAR     61  52  72 S16       29.57R
BLYTHEVILLE    CLEAR     63  57  81 S15G25    29.62S
$$

ARZ022-033-042-044-241200-
CENTRAL ARKANSAS

CITY           SKY/WX    TMP DP  RH WIND       PRES   REMARKS
LITTLE ROCK    CLEAR     59  53  80 S15G22    29.61S
JACKSONVILLE   CLEAR     61  53  76 S13       29.59S
SEARCY         CLEAR     59  54  83 S10       29.62S
HOT SPRINGS    CLEAR     61  54  77 VRB5      29.62R
RUSSELLVILLE   CLEAR     60  52  74 SE5       29.55S
$$

ARZ036-241200-
EAST ARKANSAS

CITY           SKY/WX    TMP DP  RH WIND       PRES   REMARKS
WEST MEMPHIS   CLEAR     61  57  87 S15       29.65R
$$

ARZ050-070-073-241200-
SOUTHWEST ARKANSAS

CITY           SKY/WX    TMP DP  RH WIND       PRES   REMARKS
TEXARKANA      CLEAR     59  57  93 S14G24    29.61F
EL DORADO      CLOUDY    60  57  89 S12       29.67R
DEQUEEN        PTCLDY    52  51  97 E3        29.58S
$$

ARZ056-057-069-241200-
SOUTHEAST ARKANSAS

CITY           SKY/WX    TMP DP  RH WIND       PRES   REMARKS
PINE BLUFF     PTCLDY    57  52  83 S8        29.65R
STUTTGART      PTCLDY    61  46  59 S15       29.63S
MONTICELLO     CLEAR     59  54  83 S8        29.66R
$$





USA.gov is the U.S. government's official web portal to all federal, state and local government web resources and services.